Temperature
22 22 22 22 22 22 23 24 25 25 25 25 24 24 23 22 21 19 18 19 18 18 18 18 18 18 17 17 17 17 17 17 17 17 17 17 17 17 17 17 17 17 17 17 17 17 17 17 18
22 22 22 23 23 23 23 24 24 24 25 25 24 24 23 22 21 19 19 19 18 18 18 18 18 17 17 17 17 17 17 17 17 17 17 17 17 17 17 17 17 17 17 17 17 17 17 17 18
22 22 23 23 24 23 23 24 24 25 25 25 24 23 22 21 20 19 19 19 18 18 18 18 18 18 17 17 17 17 17 17 17 17 17 17 17 17 17 17 17 17 17 17 17 17 17 17 17
22 23 24 24 24 25 25 25 25 25 25 25 24 23 21 20 20 19 19 19 18 18 18 18 18 18 17 17 17 17 17 17 17 17 16 16 16 17 17 17 17 17 17 17 17 17 17 17 17
23 24 24 24 24 25 26 26 25 25 25 24 23 22 21 20 20 19 19 19 18 18 18 18 18 17 17 17 17 17 17 17 16 16 16 16 16 16 16 17 17 17 17 17 17 17 17 17 17
24 24 23 23 24 25 26 26 25 25 25 24 23 22 20 20 20 20 19 19 18 18 18 18 18 17 17 17 17 17 17 17 17 16 16 16 16 16 16 16 16 17 17 17 17 17 17 17 17
24 24 23 24 23 24 25 25 25 25 24 24 24 22 21 20 20 20 19 19 19 18 18 18 18 17 17 17 17 17 17 17 17 17 16 16 16 16 16 16 16 16 17 17 17 17 17 17 17
25 24 24 24 24 24 25 25 25 24 24 23 23 22 21 20 20 20 19 19 19 19 18 18 18 17 17 17 17 17 17 17 16 16 16 16 16 16 16 16 16 16 16 16 16 16 17 17 16
25 24 23 24 24 24 25 25 25 24 23 23 22 21 21 20 20 20 20 19 19 19 19 18 18 17 17 17 17 16 16 16 16 16 16 16 16 16 16 16 16 16 16 16 16 16 16 16 16
26 23 24 25 26 25 25 25 25 24 23 23 22 21 21 20 20 20 20 20 19 19 19 18 18 18 17 17 17 16 16 16 16 16 16 16 16 16 16 16 16 16 16 16 16 16 16 16 16
26 25 25 26 26 25 25 25 25 24 23 22 22 21 21 21 20 20 20 20 19 19 19 18 18 18 17 17 17 16 16 16 16 16 16 16 16 16 16 16 16 16 16 16 16 16 16 16 16
26 26 26 26 25 25 25 25 24 23 23 22 22 21 21 21 21 20 20 20 19 19 18 18 18 18 17 17 17 17 16 16 16 16 16 16 16 16 15 15 15 15 15 15 15 16 16 16 16
26 26 26 25 25 25 25 24 24 23 22 22 22 21 21 21 21 20 20 20 19 19 18 18 18 18 18 17 17 17 16 16 16 16 16 16 15 15 15 15 15 15 15 15 15 15 16 16 16
26 26 26 25 25 25 24 24 24 23 22 22 22 21 21 21 21 20 20 20 19 19 19 18 18 18 18 17 17 17 16 16 16 16 16 16 15 15 15 15 15 15 15 15 15 15 15 15 15
26 25 25 25 25 25 24 23 24 23 22 22 22 21 21 21 20 20 20 19 19 19 19 18 18 18 18 17 17 17 16 16 16 16 16 16 15 15 15 15 15 15 15 15 15 15 15 15 15
26 25 24 25 26 25 24 22 23 23 23 23 22 21 21 21 20 20 19 19 19 19 19 18 18 18 18 17 17 16 16 16 16 16 16 16 15 15 15 15 15 14 14 15 14 14 15 15 15
25 24 24 25 26 26 24 23 23 23 23 23 22 22 21 21 20 20 19 19 19 19 18 18 18 18 17 17 17 16 16 16 16 16 15 15 15 15 15 15 14 14 14 14 14 14 14 14 14
24 25 25 25 26 25 24 24 23 23 23 23 23 22 22 21 20 20 19 19 18 18 18 18 17 17 17 17 16 16 16 16 15 15 15 15 15 15 15 14 14 14 14 14 14 14 14 14 14
26 25 25 25 26 25 24 24 24 24 23 23 23 22 22 21 20 19 19 18 18 18 18 17 17 17 17 16 16 16 16 15 15 15 15 15 15 15 14 14 14 14 14 14 14 14 14 14 14
26 25 25 25 26 25 24 24 24 24 23 23 23 22 22 21 20 19 18 18 18 17 17 17 17 16 16 16 16 16 15 15 15 15 15 15 14 14 14 14 14 14 14 14 14 14 14 14 14
25 25 25 25 25 25 24 23 23 24 24 23 22 22 21 20 19 18 18 17 17 17 17 16 16 16 16 16 16 15 15 15 15 14 14 14 14 14 14 14 14 14 14 14 14 14 13 13 13
25 25 25 25 24 23 24 22 23 23 22 22 22 21 21 20 19 18 17 17 17 16 16 16 16 16 16 15 15 15 15 14 14 14 14 14 14 14 14 14 14 14 14 14 13 13 13 13 13
25 25 25 24 24 23 24 23 23 23 22 22 22 21 20 19 19 18 17 17 16 16 16 16 16 15 15 15 15 15 14 14 14 14 14 14 14 14 14 14 14 13 13 13 13 13 13 13 13
25 25 24 24 23 22 24 24 22 23 22 22 22 21 20 19 18 17 17 16 16 16 16 15 15 15 15 15 14 14 14 14 14 14 14 14 13 13 13 13 13 13 13 13 13 13 13 13 13
24 23 22 22 21 22 24 24 22 23 23 23 22 21 20 19 18 17 16 16 16 16 15 15 15 14 14 14 14 14 14 14 13 13 13 13 13 13 13 13 13 13 13 13 13 13 13 13 13
24 24 22 21 22 23 24 23 22 23 23 22 21 20 19 18 18 17 16 16 15 15 15 15 14 14 14 14 13 13 13 13 13 13 13 13 13 13 13 13 13 13 13 13 13 13 12 12 12
23 23 24 22 23 22 23 23 22 22 22 21 21 20 19 18 17 17 16 15 15 15 14 14 14 14 14 13 13 13 13 13 13 13 13 13 13 12 12 12 12 13 12 12 12 12 12 12 12
24 23 23 22 21 21 23 23 21 21 21 21 20 19 18 18 17 16 16 15 15 14 14 14 14 13 13 13 13 13 13 13 13 13 13 12 12 12 12 12 12 12 12 12 12 12 12 12 12
23 23 22 22 22 21 21 21 23 21 21 20 20 19 18 17 17 16 15 15 14 14 14 14 13 13 13 13 13 13 12 12 12 12 12 12 12 12 12 12 12 12 12 12 12 12 12 12 12
23 23 22 21 21 21 20 20 23 22 21 21 20 19 18 17 17 16 15 15 14 14 13 13 13 13 13 13 12 12 12 12 12 12 12 12 12 12 12 12 12 12 12 12 12 11 11 11 11
Wind_Speed
10 11 8 3 2 1 6 7 8 7 8 10 10 10 12 12 9 7 3 4 7 10 12 11 9 9 10 10 10 10 10 10 10 10 10 10 11 10 11 11 11 11 11 10 10 10 11 11 11
10 8 4 3 1 3 7 8 9 9 7 7 9 11 12 11 10 8 4 3 7 10 12 11 9 9 9 9 9 10 10 9 9 9 9 10 10 10 10 10 11 10 10 10 10 11 11 10 10
11 8 3 1 3 5 6 7 7 8 6 6 8 11 9 7 9 5 4 6 9 11 13 12 10 9 9 9 9 9 9 9 9 9 9 9 9 9 10 11 11 10 11 10 10 11 10 10 9
6 3 2 1 8 10 8 7 6 7 6 7 8 8 9 9 6 6 6 7 10 10 14 12 11 10 10 10 10 10 10 10 9 9 9 8 9 9 9 10 10 10 10 10 10 10 9 9 9
4 2 1 4 9 9 8 8 7 8 7 9 12 10 10 10 9 8 7 8 9 9 13 12 11 10 10 10 10 9 9 9 9 9 9 9 9 9 9 9 9 9 9 10 10 9 9 9 9
3 1 1 6 9 8 7 7 7 9 8 8 9 10 7 7 7 6 7 7 8 9 11 12 12 11 10 9 9 8 8 8 8 8 8 8 8 9 9 9 9 8 8 9 9 9 9 9 8
2 1 3 7 8 7 7 7 8 8 8 8 6 8 7 7 6 6 7 7 7 8 8 10 10 10 9 9 8 7 7 7 7 6 6 7 7 8 9 9 8 8 8 8 8 8 8 7 7
3 1 3 5 7 6 5 6 7 8 8 7 6 6 6 6 6 6 6 6 6 6 6 7 8 9 9 8 7 6 6 5 5 5 4 5 7 7 8 8 7 7 7 7 7 7 6 5 5
3 1 3 4 5 5 5 6 7 7 9 9 10 10 8 8 7 6 5 5 5 5 4 5 6 7 7 7 8 6 5 4 4 3 2 3 4 6 6 7 6 6 6 5 5 5 4 3 2
1 2 3 4 6 5 5 5 5 5 8 8 9 10 9 7 6 5 5 5 5 4 4 4 4 5 6 5 6 5 4 4 2 2 3 3 4 6 7 6 6 5 4 4 3 2 2 1 1
1 3 5 6 7 5 4 4 5 6 5 6 6 7 7 6 5 4 4 5 5 5 3 3 3 4 5 4 4 3 3 3 2 2 3 3 5 5 5 4 4 3 2 1 2 1 0 1 3
3 4 4 4 5 4 3 4 5 5 5 6 6 6 6 4 5 4 4 5 5 5 3 3 3 3 4 4 3 3 2 2 2 2 3 3 2 2 3 2 3 3 2 1 2 1 2 4 4
3 4 4 4 3 4 4 4 4 4 5 5 5 6 5 3 4 4 4 6 6 5 4 3 3 3 4 3 2 3 2 2 3 2 3 4 2 2 2 3 3 3 3 2 2 3 4 4 5
2 3 2 3 3 3 3 2 2 4 5 5 5 4 4 4 4 4 4 4 4 4 4 4 3 3 4 3 2 2 3 3 3 3 2 4 3 2 2 3 2 3 3 3 2 3 3 3 4
3 3 4 4 4 4 3 1 3 5 4 4 5 5 4 3 3 3 4 4 4 3 4 3 3 3 3 4 2 3 3 3 2 2 2 4 4 4 3 3 2 2 3 3 3 3 3 3 3
5 5 5 5 5 4 3 2 3 6 4 3 3 5 5 3 3 3 4 4 3 3 4 4 3 2 3 4 2 2 3 3 3 3 3 4 5 5 4 2 2 3 3 3 2 2 3 3 3
7 7 6 5 5 4 4 2 4 5 4 4 4 5 5 4 3 4 4 4 4 4 3 5 4 2 3 3 2 3 4 3 3 4 4 4 4 5 5 2 2 3 2 2 2 3 2 2 2
6 5 4 3 4 4 4 3 5 5 5 5 5 4 4 5 4 5 5 5 5 4 4 5 4 2 4 3 2 3 4 2 3 3 3 4 4 5 5 2 2 2 2 2 2 2 2 1 1
6 6 6 2 3 3 4 4 5 5 5 4 4 5 4 5 5 5 5 5 4 4 5 5 4 3 4 2 2 2 2 2 2 2 3 4 3 4 4 2 2 2 2 2 2 2 2 1 2
7 7 6 3 2 3 4 4 3 5 6 4 3 4 5 5 6 6 5 4 5 4 4 5 5 4 4 3 2 2 2 2 3 3 3 4 4 4 3 2 2 2 2 2 2 1 1 0 1
8 6 5 4 2 5 5 5 6 6 5 5 4 3 5 6 6 6 5 5 5 4 4 4 5 4 4 4 3 3 2 2 3 2 2 3 5 5 5 3 2 2 1 1 1 1 1 0 1
6 4 6 6 6 5 7 5 6 7 7 6 5 4 5 5 6 5 5 5 5 5 4 4 5 4 4 4 3 3 3 2 2 1 2 2 4 4 5 4 3 2 1 2 1 1 0 0 0
5 5 7 9 9 9 10 7 4 8 8 7 6 5 5 6 6 6 5 5 5 5 5 5 5 5 4 4 4 3 3 2 1 2 2 2 2 3 4 3 2 2 1 1 1 1 0 0 0
6 7 10 9 8 9 9 7 3 5 7 8 8 7 5 6 6 6 6 6 6 5 4 4 4 5 4 4 3 3 3 2 2 2 2 1 1 1 2 2 1 1 1 1 1 1 1 0 0
6 6 4 4 6 5 4 3 3 6 7 8 8 7 6 5 6 6 6 5 5 5 4 4 4 4 4 3 2 2 2 2 2 2 1 1 1 1 0 1 0 0 0 0 0 0 0 0 1
7 7 5 4 4 3 2 2 6 9 9 9 8 7 6 5 5 5 6 4 4 4 3 3 3 3 3 3 2 2 2 1 1 1 1 0 0 1 1 1 1 0 0 0 0 0 0 1 0
6 6 7 7 10 7 4 4 6 8 9 8 7 6 6 5 4 5 6 5 4 4 3 2 2 3 3 2 2 3 2 1 1 0 1 0 0 1 0 1 0 0 0 0 0 0 0 1 0
7 7 5 4 4 5 4 1 4 8 7 7 6 5 5 5 4 4 5 4 4 3 2 2 2 2 2 2 1 2 2 1 1 0 1 1 1 0 0 1 1 1 1 1 1 1 1 1 1
6 6 5 5 5 5 4 2 4 6 6 6 5 5 5 5 4 4 4 4 3 3 3 2 2 2 2 2 2 1 1 2 1 1 1 1 0 0 0 1 1 1 1 1 1 1 1 2 2
4 5 6 5 5 5 5 1 5 7 6 6 6 5 5 5 4 4 4 3 3 2 2 2 1 2 2 1 1 1 1 1 1 1 1 1 1 1 1 1 1 1 1 1 1 2 1 2 2
Wind_Direction
267 254 252 254 269 101 64 66 66 61 58 55 53 61 65 50 47 83 106 71 88 98 101 91 78 73 71 71 69 67 68 69 66 64 63 64 63 64 65 65 65 69 71 70 68 70 71 71 72
280 278 272 248 238 87 70 67 65 61 68 75 69 64 69 62 65 93 98 79 91 94 96 91 83 77 73 72 70 69 69 69 65 63 64 63 63 65 66 66 67 72 75 75 72 71 71 70 68
271 269 267 270 44 69 76 75 84 82 68 71 73 65 57 63 69 87 99 100 92 91 94 92 87 81 77 75 73 70 68 67 65 65 67 66 68 68 67 67 68 70 72 74 72 69 67 68 68
271 271 250 68 69 65 76 83 83 83 72 65 75 73 70 59 74 98 109 99 96 97 99 98 92 86 83 79 75 70 67 66 64 65 67 68 72 72 71 70 71 71 71 73 74 71 68 66 64
246 256 114 91 78 72 68 72 75 77 70 67 80 87 82 75 85 101 106 99 98 99 104 107 104 96 90 84 79 73 69 67 66 68 69 71 74 76 75 73 72 72 71 73 74 74 70 67 64
271 268 101 98 90 77 70 68 71 73 76 75 88 97 89 95 95 97 99 102 102 103 108 114 115 110 100 90 82 77 74 71 71 72 71 75 75 74 77 75 73 74 73 73 74 73 71 67 62
283 309 97 105 97 79 68 62 62 68 61 54 69 92 105 101 105 109 107 107 106 109 116 124 130 127 117 104 94 85 81 80 79 78 78 83 83 81 78 75 72 75 78 77 76 74 75 70 62
286 316 87 89 96 86 75 73 69 67 67 58 59 81 105 117 124 114 112 109 109 114 122 127 127 130 133 124 113 105 98 97 96 93 91 98 100 93 85 82 75 76 79 82 83 81 80 74 63
286 42 77 86 91 97 94 86 83 79 80 71 72 82 101 118 120 118 119 114 109 106 115 121 128 128 124 127 128 133 129 126 125 135 131 127 128 116 98 88 89 84 80 82 89 84 84 77 60
254 76 81 87 93 91 84 90 103 94 80 79 89 95 106 117 122 124 130 127 114 105 105 109 114 118 111 106 123 137 134 143 146 135 150 147 105 98 100 102 99 93 85 78 80 78 76 64 49
95 83 82 78 85 89 91 87 82 99 84 81 93 114 122 127 126 116 111 103 101 106 96 95 108 105 106 105 111 106 107 124 115 77 93 91 101 112 116 130 122 110 97 69 72 85 3 75 68
107 91 88 84 84 94 90 87 77 73 81 88 95 107 113 121 116 112 105 106 103 94 100 91 93 103 104 104 109 106 98 96 87 58 79 79 74 87 100 108 117 118 104 64 70 61 62 61 64
122 114 108 105 110 109 94 85 88 83 92 94 96 104 111 115 105 104 106 107 109 112 121 100 86 92 103 98 108 113 103 93 101 64 56 82 85 85 88 85 80 83 82 71 44 42 45 41 43
124 120 141 152 153 152 128 120 136 115 122 118 115 119 124 109 100 104 100 103 111 111 108 112 112 93 93 105 105 96 91 87 80 71 53 78 78 81 83 81 76 75 73 70 59 64 57 46 41
167 179 198 190 185 156 146 203 160 142 148 152 141 130 117 115 111 96 90 90 88 106 107 105 102 93 99 102 100 96 87 87 77 71 67 85 89 83 76 74 75 78 75 72 62 66 65 58 54
228 219 220 202 188 174 201 231 142 150 168 169 157 139 135 133 122 105 93 82 74 71 95 102 103 98 93 97 102 92 82 72 64 52 51 65 83 86 83 79 66 69 67 72 69 64 64 54 50
234 231 227 194 188 191 216 230 157 162 180 189 178 160 152 143 129 110 92 83 66 49 66 94 98 108 93 92 88 73 82 70 54 45 46 45 67 81 79 80 67 62 69 68 68 64 69 65 60
249 251 245 210 175 201 221 211 162 172 191 195 172 161 145 131 114 102 91 80 68 52 53 78 81 98 91 85 84 73 82 85 59 42 47 51 56 70 81 94 82 65 71 67 68 68 67 76 84
276 278 271 250 171 215 230 223 175 175 188 194 176 154 139 123 105 92 90 90 80 62 59 65 63 72 86 83 87 86 79 78 79 59 52 53 60 73 76 75 81 71 68 80 84 84 70 55 64
272 272 272 250 173 246 240 226 194 183 185 185 180 146 133 116 102 86 79 89 78 59 52 70 60 62 73 66 76 90 93 88 88 64 49 43 48 60 80 87 89 101 96 83 69 83 82 59 70
265 276 283 290 272 245 250 239 209 191 172 155 137 118 108 109 107 102 87 77 82 72 52 67 66 62 70 72 69 71 71 69 72 65 56 42 46 49 55 57 79 108 99 99 93 70 107 185 331
272 306 303 290 279 264 233 247 205 177 164 160 145 125 110 105 104 97 90 91 86 69 46 57 67 64 65 84 80 84 89 85 83 78 64 59 51 45 49 47 57 74 88 96 89 76 49 136 299
299 316 289 277 272 274 256 253 197 167 171 161 144 132 116 110 106 102 87 90 94 82 60 50 55 61 58 67 88 86 80 82 82 76 74 63 63 48 43 44 51 56 51 68 95 85 7 139 196
291 282 266 255 264 260 250 248 184 169 161 150 138 129 119 112 108 104 93 86 89 86 75 59 62 57 58 61 77 91 84 75 76 71 65 48 65 59 47 39 36 42 62 38 43 56 55 239 260
258 276 277 237 223 241 236 235 120 107 119 123 122 121 119 111 106 103 99 92 90 92 81 70 67 67 55 61 67 78 87 77 83 74 65 53 44 5 321 34 328 334 28 80 49 18 279 324 41
263 257 273 293 294 313 251 190 112 105 96 105 112 111 109 109 110 110 109 101 94 91 83 79 72 67 57 47 43 60 73 67 71 84 75 45 224 237 238 231 271 330 326 24 120 56 6 21 64
276 269 275 286 292 287 253 128 121 118 116 113 115 113 111 108 113 115 112 103 94 91 78 81 84 70 57 45 39 43 54 38 57 82 91 338 291 271 189 184 205 308 288 209 203 213 220 329 24
265 295 294 273 288 285 279 215 153 149 144 138 130 126 121 117 114 113 110 106 99 99 94 80 89 84 58 35 25 45 37 357 305 116 128 252 238 238 264 244 228 226 229 202 211 224 232 206 181
229 248 264 277 274 287 301 42 65 130 131 133 133 129 127 127 128 123 118 114 105 96 92 74 70 65 49 20 6 46 45 359 3 359 13 310 307 355 234 240 282 248 226 205 218 220 230 232 207
248 264 268 268 281 289 289 346 72 91 103 119 127 129 130 134 135 129 122 123 116 105 100 78 50 56 56 6 344 28 30 342 360 348 314 299 314 290 276 256 235 247 239 213 215 233 240 246 227
Height
1494 1493 1494 1496 1497 1501 1504 1499 1495 1496 1497 1499 1499 1499 1503 1506 1510 1520 1519 1517 1517 1516 1515 1514 1514 1513 1513 1513 1513 1513 1513 1513 1513 1513 1513 1513 1513 1513 1513 1513 1514 1514 1514 1514 1515 1515 1515 1516 1516
1494 1495 1496 1496 1499 1508 1508 1499 1499 1499 1499 1500 1501 1502 1504 1509 1513 1516 1518 1518 1518 1517 1516 1515 1515 1515 1514 1514 1514 1514 1514 1514 1514 1514 1514 1514 1514 1515 1515 1515 1515 1515 1516 1516 1516 1516 1516 1517 1517
1495 1496 1497 1495 1499 1506 1507 1499 1499 1500 1500 1500 1502 1505 1509 1513 1516 1517 1518 1519 1519 1518 1517 1517 1516 1516 1516 1516 1515 1515 1515 1515 1515 1515 1515 1515 1516 1516 1516 1516 1516 1516 1517 1517 1517 1517 1518 1518 1518
1497 1497 1497 1499 1502 1499 1499 1499 1498 1500 1501 1501 1503 1508 1513 1516 1517 1518 1519 1520 1519 1519 1518 1518 1517 1517 1517 1517 1517 1517 1516 1516 1516 1516 1516 1516 1517 1517 1517 1517 1517 1518 1518 1518 1518 1519 1519 1519 1519
1498 1497 1499 1503 1502 1499 1498 1499 1500 1501 1503 1504 1506 1511 1516 1518 1519 1519 1520 1520 1520 1520 1519 1519 1519 1519 1518 1518 1518 1518 1518 1517 1517 1517 1517 1518 1518 1518 1518 1518 1518 1519 1519 1519 1519 1519 1520 1520 1520
1498 1496 1504 1508 1505 1501 1500 1501 1501 1503 1504 1506 1508 1512 1518 1520 1520 1521 1521 1521 1521 1521 1521 1520 1520 1520 1520 1519 1519 1519 1519 1519 1519 1518 1519 1519 1519 1519 1519 1519 1519 1520 1520 1520 1520 1521 1521 1521 1522
1499 1498 1503 1504 1506 1505 1503 1503 1504 1505 1507 1508 1509 1513 1518 1520 1521 1521 1522 1522 1522 1522 1522 1521 1521 1521 1521 1521 1521 1520 1520 1520 1520 1520 1520 1520 1520 1520 1520 1520 1520 1521 1521 1521 1521 1522 1522 1522 1523
1498 1498 1502 1503 1507 1508 1505 1505 1506 1507 1509 1511 1511 1514 1518 1520 1521 1522 1522 1523 1523 1523 1523 1523 1522 1522 1522 1522 1522 1522 1522 1521 1521 1521 1521 1521 1521 1521 1521 1521 1521 1521 1522 1522 1523 1523 1523 1524 1524
1498 1502 1507 1506 1506 1507 1505 1506 1508 1510 1511 1512 1514 1516 1519 1520 1521 1522 1523 1523 1524 1524 1524 1524 1524 1524 1523 1523 1523 1523 1523 1522 1522 1522 1523 1523 1522 1522 1522 1522 1523 1523 1523 1523 1524 1524 1525 1525 1526
1498 1505 1505 1501 1501 1504 1506 1507 1508 1510 1512 1514 1516 1518 1519 1520 1521 1522 1523 1523 1524 1525 1525 1525 1525 1525 1524 1524 1524 1524 1524 1523 1524 1524 1524 1524 1524 1524 1524 1523 1524 1524 1524 1525 1525 1525 1526 1526 1527
1497 1501 1501 1501 1503 1505 1506 1508 1509 1511 1513 1515 1517 1518 1519 1520 1521 1522 1522 1523 1523 1524 1525 1525 1525 1525 1525 1525 1525 1525 1525 1524 1525 1525 1525 1525 1525 1525 1524 1524 1524 1525 1525 1525 1526 1526 1527 1527 1528
1498 1500 1501 1503 1505 1506 1507 1508 1510 1512 1515 1516 1517 1518 1519 1520 1521 1522 1522 1523 1524 1524 1525 1525 1525 1525 1525 1525 1525 1525 1525 1525 1525 1525 1526 1526 1526 1526 1525 1525 1525 1526 1526 1526 1527 1527 1528 1528 1529
1499 1501 1503 1504 1506 1507 1508 1510 1512 1514 1515 1516 1518 1519 1520 1520 1521 1522 1522 1523 1523 1524 1524 1525 1525 1525 1525 1525 1525 1525 1525 1525 1526 1526 1526 1526 1526 1526 1526 1526 1527 1527 1527 1527 1528 1528 1529 1529 1529
1500 1501 1503 1504 1505 1507 1508 1510 1512 1514 1515 1516 1518 1519 1520 1520 1521 1522 1522 1522 1523 1524 1524 1524 1524 1525 1525 1524 1525 1525 1525 1526 1526 1526 1526 1526 1527 1527 1527 1527 1527 1527 1528 1528 1528 1529 1529 1529 1530
1500 1502 1503 1503 1504 1506 1508 1511 1510 1513 1515 1516 1517 1518 1519 1520 1521 1521 1522 1522 1522 1523 1523 1523 1524 1524 1524 1524 1524 1525 1525 1525 1526 1526 1527 1527 1527 1527 1527 1527 1528 1528 1528 1528 1529 1529 1529 1530 1530
1499 1503 1508 1502 1501 1504 1509 1516 1510 1511 1513 1515 1516 1517 1518 1519 1520 1521 1521 1521 1522 1522 1522 1522 1523 1524 1524 1524 1524 1525 1525 1525 1526 1526 1526 1527 1527 1527 1527 1527 1528 1528 1528 1529 1529 1529 1530 1530 1531
1501 1507 1506 1502 1499 1501 1506 1511 1509 1510 1512 1513 1514 1516 1517 1518 1520 1520 1520 1521 1521 1521 1522 1522 1522 1523 1523 1524 1524 1524 1525 1525 1526 1526 1526 1527 1527 1527 1527 1528 1528 1528 1528 1529 1529 1529 1530 1530 1531
1505 1502 1501 1501 1498 1500 1504 1506 1506 1508 1510 1511 1512 1514 1516 1517 1519 1519 1519 1520 1520 1521 1521 1521 1522 1522 1523 1523 1524 1524 1525 1525 1525 1526 1526 1526 1527 1527 1527 1527 1528 1528 1528 1529 1529 1530 1530 1530 1531
1495 1498 1500 1497 1494 1499 1503 1503 1503 1505 1507 1509 1510 1512 1514 1516 1518 1518 1519 1519 1519 1520 1520 1521 1521 1522 1522 1523 1523 1523 1524 1525 1525 1526 1526 1526 1527 1527 1527 1527 1528 1528 1528 1529 1529 1529 1530 1530 1531
1495 1499 1499 1495 1492 1497 1500 1502 1501 1503 1505 1507 1509 1511 1513 1515 1517 1518 1518 1519 1519 1519 1520 1520 1520 1521 1521 1522 1523 1523 1524 1524 1525 1525 1526 1526 1526 1527 1527 1527 1527 1527 1528 1528 1528 1529 1529 1530 1531
1496 1498 1498 1498 1496 1495 1500 1505 1502 1500 1503 1506 1508 1510 1512 1514 1516 1517 1518 1518 1519 1519 1520 1520 1519 1520 1520 1521 1521 1522 1523 1524 1524 1525 1525 1525 1526 1526 1526 1526 1527 1527 1527 1528 1528 1528 1529 1529 1530
1498 1493 1495 1497 1502 1503 1500 1513 1503 1500 1502 1504 1507 1510 1512 1514 1516 1517 1517 1518 1518 1519 1519 1519 1519 1519 1519 1520 1520 1521 1522 1523 1523 1524 1524 1524 1525 1525 1525 1526 1526 1526 1526 1527 1527 1527 1528 1529 1529
1496 1493 1495 1496 1499 1503 1497 1504 1502 1497 1503 1503 1506 1509 1512 1514 1515 1516 1517 1518 1518 1518 1519 1519 1518 1518 1518 1519 1520 1520 1521 1522 1523 1523 1523 1524 1524 1524 1524 1525 1525 1525 1526 1526 1526 1527 1527 1528 1528
1494 1495 1494 1495 1499 1511 1497 1500 1504 1497 1498 1500 1504 1508 1511 1513 1515 1516 1517 1517 1518 1518 1518 1518 1518 1518 1518 1518 1519 1520 1520 1521 1522 1522 1522 1522 1523 1523 1523 1524 1524 1525 1525 1525 1525 1526 1526 1527 1528
1494 1502 1511 1512 1514 1506 1488 1494 1501 1493 1493 1498 1503 1507 1510 1513 1514 1515 1516 1517 1517 1518 1518 1518 1518 1517 1517 1518 1518 1519 1519 1520 1520 1521 1521 1521 1521 1522 1522 1522 1523 1523 1524 1524 1524 1525 1525 1526 1527
1495 1499 1514 1521 1513 1501 1491 1497 1498 1492 1495 1499 1503 1507 1510 1512 1513 1514 1515 1516 1517 1517 1518 1518 1518 1518 1517 1517 1518 1518 1519 1519 1519 1520 1520 1520 1520 1520 1521 1521 1521 1522 1522 1523 1523 1523 1524 1525 1525
1497 1496 1494 1504 1502 1505 1496 1495 1496 1494 1497 1500 1504 1507 1509 1512 1513 1514 1515 1516 1517 1517 1517 1517 1518 1518 1517 1517 1517 1518 1518 1518 1518 1518 1518 1518 1519 1519 1519 1519 1520 1520 1520 1521 1521 1522 1522 1523 1524
1494 1495 1499 1505 1513 1514 1501 1496 1502 1499 1499 1500 1504 1507 1509 1512 1513 1514 1514 1515 1516 1516 1517 1517 1517 1517 1517 1517 1517 1517 1517 1517 1516 1517 1517 1517 1517 1517 1517 1517 1517 1518 1518 1519 1519 1520 1520 1521 1522
1496 1498 1499 1501 1502 1514 1516 1509 1492 1494 1496 1500 1503 1506 1509 1511 1512 1513 1514 1515 1515 1516 1516 1516 1516 1516 1516 1515 1515 1515 1515 1515 1515 1515 1515 1515 1515 1515 1515 1515 1515 1516 1516 1516 1517 1517 1518 1519 1520
1491 1495 1499 1510 1508 1504 1511 1511 1491 1493 1496 1499 1502 1505 1508 1510 1511 1512 1513 1514 1515 1515 1515 1515 1515 1515 1514 1514 1514 1514 1514 1514 1514 1513 1513 1513 1513 1513 1513 1513 1513 1514 1514 1514 1515 1515 1516 1517 1518